Tuscaloosa, AL

7:38 PM CDT on August 17, 2019 (GMT -0500)
Tuscaloosa Municipal

Weather History for KTCL - May, 2019

Change the Weather History Date:

Saturday, May 18, 2019

  Actual Average Record
Temperature  
Mean Temperature 79 °F 72 °F  
Max Temperature 91 °F 84 °F 97 °F (1951)
Min Temperature 67 °F 61 °F 43 °F (2011)
Cooling Degree Days 14    
Growing Degree Days 28 (Base 50)    
Moisture  
Dew Point 64 °F    
Average Humidity 64    
Maximum Humidity 90    
Minimum Humidity 38    
Precipitation  
Precipitation 0.00 in 0.12 in 2.07 in (1969)
Month to date precipitation 3.76 2.29  
Year to date precipitation 25.12 21.71  
Sea Level Pressure  
Sea Level Pressure 29.96 in    
Wind  
Wind Speed 7 mph (South)    
Max Wind Speed 18 mph    
Max Gust Speed 23 mph    
Visibility 9 miles    
Events      
T = Trace of Precipitation, MM = Missing Value Source: NWS Daily Summary

Daily Weather History Graph

Daily Weather History Graph

Search for Another Location

Airport or City:

Astronomy

May. 18, 2019 Rise Set
Actual Time 5:48 AM CDT 7:45 PM CDT
Civil Twilight 5:21 AM CDT 8:12 PM CDT
Nautical Twilight 4:47 AM CDT 8:46 PM CDT
Astronomical Twilight 4:12 AM CDT 9:22 PM CDT
Moon 7:43 PM CDT 5:50 AM CDT
Length of Visible Light 14h 51m
Length of Day
13h 56m
Full, 100% of the Moon is Illuminated
May 18
Full
May 18
Full
May 26
Last Quarter
Jun 3
New
Jun 10
First Quarter

Hourly Weather History & Observations

Time (CDT) Temp. Heat Index Dew Point Humidity Pressure Visibility Wind Dir Wind Speed Gust Speed Precip Events Conditions
12:53 AM 71.1 °F - 66.0 °F 84% 29.97 in 9.0 mi Calm Calm - N/A   Clear
1:53 AM 70.0 °F - 66.0 °F 87% 29.97 in 7.0 mi Calm Calm - N/A   Clear
2:53 AM 69.1 °F - 64.9 °F 87% 29.98 in 5.0 mi Calm Calm - N/A   Clear
4:53 AM 68.0 °F - 64.0 °F 87% 29.98 in 7.0 mi Calm Calm - N/A   Clear
5:53 AM 66.9 °F - 63.0 °F 87% 29.99 in 5.0 mi Calm Calm - N/A   Clear
6:53 AM 71.1 °F - 64.9 °F 81% 30.01 in 6.0 mi Calm Calm - N/A   Haze
7:53 AM 75.0 °F - 66.9 °F 76% 30.02 in 9.0 mi South 4.6 mph - N/A   Clear
8:53 AM 79.0 °F - 68.0 °F 69% 30.03 in 10.0 mi South 3.5 mph - N/A   Clear
9:53 AM 82.0 °F 84.9 °F 68.0 °F 62% 30.03 in 10.0 mi SSW 5.8 mph - N/A   Partly Cloudy
10:53 AM 84.9 °F 87.6 °F 66.9 °F 55% 30.01 in 10.0 mi South 9.2 mph - N/A   Clear
11:53 AM 87.1 °F 89.2 °F 66.0 °F 49% 30.00 in 10.0 mi South 9.2 mph 19.6 mph N/A   Partly Cloudy
12:53 PM 88.0 °F 89.6 °F 64.9 °F 46% 29.99 in 10.0 mi SSE 12.7 mph - N/A   Clear
1:53 PM 89.1 °F 90.3 °F 64.0 °F 43% 29.96 in 10.0 mi SSW 11.5 mph 18.4 mph N/A   Partly Cloudy
2:53 PM 91.0 °F 91.5 °F 62.1 °F 38% 29.95 in 10.0 mi South 12.7 mph - N/A   Partly Cloudy
3:53 PM 90.0 °F 90.3 °F 62.1 °F 39% 29.94 in 10.0 mi South 10.4 mph - N/A   Clear
4:53 PM 90.0 °F 90.3 °F 62.1 °F 39% 29.93 in 10.0 mi South 11.5 mph 19.6 mph N/A   Partly Cloudy
5:53 PM 88.0 °F 88.7 °F 63.0 °F 43% 29.91 in 10.0 mi South 13.8 mph - N/A   Clear
6:53 PM 87.1 °F 88.3 °F 64.0 °F 46% 29.90 in 10.0 mi SSE 3.5 mph - N/A   Clear
7:53 PM 82.9 °F 84.4 °F 64.0 °F 53% 29.89 in 10.0 mi ESE 8.1 mph - N/A   Clear
8:53 PM 82.0 °F 83.4 °F 64.0 °F 54% 29.90 in 10.0 mi SE 8.1 mph - N/A   Clear
9:53 PM 79.0 °F - 63.0 °F 58% 29.94 in 10.0 mi South 6.9 mph - N/A   Clear
10:53 PM 77.0 °F - 61.0 °F 58% 29.94 in 10.0 mi South 10.4 mph - N/A   Clear
11:53 PM 75.0 °F - 60.1 °F 60% 29.95 in 10.0 mi South 6.9 mph - N/A   Clear